TimeEDT,TemperatureF,Dew PointF,Humidity,Sea Level PressureIn,VisibilityMPH,Wind Direction,Wind SpeedMPH,Gust SpeedMPH,PrecipitationIn,Events,Conditions,WindDirDegrees,DateUTC
12:15 AM,65.7,64.6,96,30.05,7.0,Calm,Calm,-,N/A,,Clear,0,2013-06-27 04:15:00
12:35 AM,65.7,64.6,96,30.06,5.0,Calm,Calm,-,N/A,,Scattered Clouds,0,2013-06-27 04:35:00
12:55 AM,66.2,65.1,96,30.04,7.0,Calm,Calm,-,N/A,,Mostly Cloudy,0,2013-06-27 04:55:00
1:15 AM,65.8,64.8,96,30.03,7.0,Calm,Calm,-,N/A,,Mostly Cloudy,0,2013-06-27 05:15:00
1:35 AM,65.7,64.6,96,30.02,5.0,Calm,Calm,-,N/A,,Scattered Clouds,0,2013-06-27 05:35:00
1:55 AM,65.5,64.4,96,30.02,5.0,Calm,Calm,-,N/A,,Mostly Cloudy,0,2013-06-27 05:55:00
2:15 AM,65.3,64.2,96,30.02,5.0,Calm,Calm,-,N/A,,Mostly Cloudy,0,2013-06-27 06:15:00
2:35 AM,65.3,64.2,96,30.01,7.0,Calm,Calm,-,N/A,,Mostly Cloudy,0,2013-06-27 06:35:00
2:55 AM,65.1,63.9,96,30.01,7.0,Calm,Calm,-,N/A,,Scattered Clouds,0,2013-06-27 06:55:00
3:15 AM,64.4,63.3,96,29.98,5.0,Calm,Calm,-,N/A,,Scattered Clouds,0,2013-06-27 07:15:00
3:35 AM,64.2,63.1,96,29.98,4.0,Calm,Calm,-,N/A,Rain,Light Rain,0,2013-06-27 07:35:00
3:55 AM,64.8,63.5,96,29.98,4.0,Calm,Calm,-,N/A,Rain,Rain,0,2013-06-27 07:55:00
4:15 AM,64.9,63.7,96,29.99,5.0,Calm,Calm,-,N/A,Rain,Light Rain,0,2013-06-27 08:15:00
4:35 AM,64.9,63.7,96,29.99,2.5,Calm,Calm,-,N/A,Rain,Heavy Rain,0,2013-06-27 08:35:00
4:55 AM,64.9,63.7,96,29.99,2.5,Calm,Calm,-,N/A,Rain,Rain,0,2013-06-27 08:55:00
5:15 AM,64.9,63.7,96,29.99,4.0,South,4.6,-,N/A,Rain,Light Rain,190,2013-06-27 09:15:00
5:35 AM,65.3,63.9,95,29.99,1.8,Calm,Calm,-,N/A,Rain,Heavy Rain,0,2013-06-27 09:35:00
5:55 AM,64.9,63.7,96,29.99,7.0,ENE,3.5,-,N/A,Rain,Light Rain,70,2013-06-27 09:55:00
6:15 AM,64.6,63.5,96,29.99,7.0,Calm,Calm,-,N/A,,Overcast,0,2013-06-27 10:15:00
6:35 AM,64.4,63.5,97,29.99,10.0,Calm,Calm,-,N/A,,Scattered Clouds,0,2013-06-27 10:35:00
6:55 AM,64.4,63.5,97,29.98,7.0,Calm,Calm,-,N/A,,Mostly Cloudy,0,2013-06-27 10:55:00
7:15 AM,64.6,63.5,96,29.99,4.0,Calm,Calm,-,N/A,,Light Drizzle,0,2013-06-27 11:15:00
7:35 AM,64.6,63.5,96,29.98,5.0,Calm,Calm,-,N/A,Rain,Light Rain,0,2013-06-27 11:35:00
7:55 AM,64.6,63.5,96,29.98,5.0,Calm,Calm,-,N/A,Rain,Light Rain,0,2013-06-27 11:55:00
8:15 AM,65.1,64.0,96,29.98,7.0,Calm,Calm,-,N/A,Rain,Light Rain,0,2013-06-27 12:15:00
8:55 AM,67.3,66.2,96,29.99,10.0,Calm,Calm,-,N/A,,Scattered Clouds,0,2013-06-27 12:55:00
9:15 AM,67.1,65.7,95,29.98,10.0,Calm,Calm,-,N/A,,Scattered Clouds,0,2013-06-27 13:15:00
9:35 AM,68.5,67.3,96,29.98,10.0,Calm,Calm,-,N/A,,Scattered Clouds,0,2013-06-27 13:35:00
9:55 AM,69.4,67.1,92,29.97,10.0,Calm,Calm,-,N/A,,Mostly Cloudy,0,2013-06-27 13:55:00
10:15 AM,70.0,67.3,91,29.97,10.0,Calm,Calm,-,N/A,,Overcast,0,2013-06-27 14:15:00
10:35 AM,70.2,66.0,87,29.97,10.0,Calm,Calm,-,N/A,,Overcast,0,2013-06-27 14:35:00
10:55 AM,70.7,67.8,91,29.97,10.0,Calm,Calm,-,N/A,,Overcast,0,2013-06-27 14:55:00
11:15 AM,72.9,65.8,79,29.96,10.0,Calm,Calm,-,N/A,,Mostly Cloudy,0,2013-06-27 15:15:00
11:35 AM,75.0,65.8,73,29.96,10.0,Calm,Calm,-,N/A,,Mostly Cloudy,0,2013-06-27 15:35:00
11:55 AM,75.6,65.7,71,29.96,10.0,Calm,Calm,-,N/A,,Overcast,0,2013-06-27 15:55:00
12:15 PM,76.5,66.2,70,29.95,10.0,Calm,Calm,-,N/A,,Overcast,0,2013-06-27 16:15:00
12:35 PM,76.5,65.7,69,29.95,10.0,Calm,Calm,-,N/A,,Overcast,0,2013-06-27 16:35:00
12:55 PM,76.5,66.4,71,29.95,10.0,Calm,Calm,-,N/A,,Overcast,0,2013-06-27 16:55:00
1:15 PM,77.2,65.8,68,29.94,10.0,Calm,Calm,-,N/A,,Overcast,0,2013-06-27 17:15:00
1:35 PM,79.3,67.5,67,29.94,10.0,Calm,Calm,-,N/A,,Scattered Clouds,0,2013-06-27 17:35:00
1:55 PM,78.4,65.5,64,29.93,10.0,Calm,Calm,-,N/A,,Mostly Cloudy,0,2013-06-27 17:55:00
2:15 PM,79.9,67.8,66,29.93,10.0,NNW,3.5,-,N/A,,Mostly Cloudy,330,2013-06-27 18:15:00
2:35 PM,79.5,66.6,64,29.92,10.0,NW,3.5,-,N/A,,Mostly Cloudy,320,2013-06-27 18:35:00
2:55 PM,76.1,70.7,83,29.93,10.0,NNE,3.5,-,N/A,Rain,Light Rain,20,2013-06-27 18:55:00
3:15 PM,79.3,70.3,74,29.92,10.0,NE,3.5,-,N/A,,Scattered Clouds,40,2013-06-27 19:15:00
3:35 PM,79.9,68.5,68,29.91,10.0,Calm,Calm,-,N/A,,Clear,0,2013-06-27 19:35:00
3:55 PM,80.6,69.3,68,29.90,10.0,WNW,4.6,-,N/A,,Scattered Clouds,300,2013-06-27 19:55:00
4:15 PM,81.7,68.7,65,29.89,10.0,North,5.8,-,N/A,,Scattered Clouds,350,2013-06-27 20:15:00
4:35 PM,81.3,67.5,63,29.89,10.0,Calm,Calm,-,N/A,,Scattered Clouds,0,2013-06-27 20:35:00
4:55 PM,82.6,67.3,60,29.87,10.0,North,4.6,-,N/A,,Scattered Clouds,350,2013-06-27 20:55:00
5:15 PM,80.6,66.6,62,29.87,10.0,NW,5.8,-,N/A,,Scattered Clouds,320,2013-06-27 21:15:00
5:35 PM,80.4,67.3,64,29.87,10.0,North,3.5,-,N/A,,Scattered Clouds,360,2013-06-27 21:35:00
5:55 PM,80.4,66.7,63,29.87,10.0,North,6.9,-,N/A,,Clear,350,2013-06-27 21:55:00
6:15 PM,81.1,66.6,61,29.87,10.0,North,4.6,-,N/A,,Clear,350,2013-06-27 22:15:00
6:35 PM,79.9,66.6,64,29.87,10.0,NNW,4.6,-,N/A,,Scattered Clouds,330,2013-06-27 22:35:00
6:55 PM,79.3,67.3,66,29.87,10.0,Calm,Calm,-,N/A,,Clear,0,2013-06-27 22:55:00
7:15 PM,78.6,66.4,66,29.87,10.0,NNW,6.9,-,N/A,,Scattered Clouds,330,2013-06-27 23:15:00
7:35 PM,77.5,66.2,68,29.87,10.0,WNW,3.5,-,N/A,,Clear,300,2013-06-27 23:35:00
7:55 PM,77.2,65.8,68,29.87,10.0,North,3.5,-,N/A,,Clear,360,2013-06-27 23:55:00
8:15 PM,75.9,67.1,74,29.88,10.0,West,3.5,-,N/A,,Scattered Clouds,270,2013-06-28 00:15:00
8:35 PM,76.8,62.1,60,29.89,10.0,NW,4.6,-,N/A,,Clear,320,2013-06-28 00:35:00
8:55 PM,75.2,62.2,64,29.90,10.0,NNW,4.6,-,N/A,,Clear,330,2013-06-28 00:55:00
9:15 PM,75.2,62.4,64,29.90,10.0,Calm,Calm,-,N/A,,Clear,0,2013-06-28 01:15:00
9:35 PM,70.9,63.3,77,29.91,10.0,Calm,Calm,-,N/A,,Clear,0,2013-06-28 01:35:00
9:55 PM,69.3,63.9,83,29.91,10.0,Calm,Calm,-,N/A,,Clear,0,2013-06-28 01:55:00
10:15 PM,69.1,63.1,81,29.91,10.0,Calm,Calm,-,N/A,,Scattered Clouds,0,2013-06-28 02:15:00
10:35 PM,68.7,64.4,86,29.92,7.0,Calm,Calm,-,N/A,Rain,Rain,0,2013-06-28 02:35:00
10:55 PM,67.6,65.3,92,29.93,3.0,Calm,Calm,-,N/A,,Scattered Clouds,0,2013-06-28 02:55:00
11:15 PM,66.7,64.8,93,29.93,5.0,Calm,Calm,-,N/A,,Scattered Clouds,0,2013-06-28 03:15:00
11:35 PM,65.8,64.4,95,29.93,7.0,Calm,Calm,-,N/A,,Scattered Clouds,0,2013-06-28 03:35:00
11:55 PM,65.5,64.4,96,29.93,7.0,Calm,Calm,-,N/A,,Clear,0,2013-06-28 03:55:00